Weather History for Custer, SD

Change the Weather History Date:

Monday, January 23, 2012

  Actual Average Record
Temperature  
Mean Temperature 28 °F 24 °F  
Max Temperature 38 °F 35 °F 64 °F (1981)
Min Temperature 18 °F 14 °F -26 °F (1963)
Degree Days  
Heating Degree Days 37 41  
Month to date heating degree days 906 943  
Since 1 July heating degree days 4108 4413  
Cooling Degree Days 0 0  
Month to date cooling degree days 0 0  
Year to date cooling degree days 0 0  
Moisture  
Dew Point 8 °F    
Average Humidity 53    
Maximum Humidity 73    
Minimum Humidity 32    
Precipitation  
Precipitation 0.00 in 0.01 in 0.28 in (1964)
Month to date precipitation 0.12 0.22  
Year to date precipitation 0.12 0.22  
Sea Level Pressure  
Sea Level Pressure 29.87 in    
Wind  
Wind Speed 5 mph (West)    
Max Wind Speed 17 mph    
Max Gust Speed 25 mph    
Visibility 10 miles    
Events      
T = Trace of Precipitation, MM = Missing Value Source: NWS Daily Summary

Daily Weather History Graph

Daily Weather History Graph

Search for Another Location

Airport:

Trip Planner

Search our weather history database for the weather conditions in past years. The results will help you decide how hot, cold, wet, or windy it might be!

Date:

Astronomy

Jan. 23, 2012 Rise Set
Actual Time 7:20 AM MST 4:52 PM MST
Civil Twilight 6:48 AM MST 5:24 PM MST
Nautical Twilight 6:13 AM MST 5:59 PM MST
Astronomical Twilight 5:39 AM MST 6:33 PM MST
Moon 7:14 AM MST (1/23) 5:45 PM MST (1/23)
Length of Visible Light 10h 35m
Length of Day
9h 32m
New Moon, 0% of the Moon is Illuminated
Jan 23
New Moon
Jan 30
First Quarter
Feb 7
Full
Feb 14
Last Quarter
Feb 21
New

Hourly Weather History & Observations

Time (MST) Temp. Windchill Dew Point Humidity Pressure Visibility Wind Dir Wind Speed Gust Speed Precip Events Conditions
12:53 AM 21.9 °F 8.7 °F 6.1 °F 51% 29.84 in 10.0 mi West 15.0 mph 20.7 mph N/A   Clear
1:53 AM 21.0 °F 9.9 °F 6.1 °F 53% 29.87 in 10.0 mi West 10.4 mph 19.6 mph N/A   Clear
2:53 AM 21.9 °F 10.4 °F 3.9 °F 46% 29.87 in 10.0 mi WNW 11.5 mph - N/A   Clear
3:53 AM 21.9 °F - 1.9 °F 42% 29.85 in 10.0 mi Calm Calm - N/A   Clear
4:53 AM 21.9 °F 15.7 °F 1.9 °F 42% 29.86 in 10.0 mi WNW 4.6 mph - N/A   Clear
5:53 AM 23.0 °F 15.8 °F 1.9 °F 40% 29.86 in 10.0 mi WNW 5.8 mph - N/A   Clear
6:53 AM 19.0 °F 13.9 °F 1.0 °F 46% 29.90 in 10.0 mi West 3.5 mph - N/A   Clear
7:53 AM 21.9 °F 13.4 °F 1.9 °F 42% 29.90 in 10.0 mi WNW 6.9 mph - N/A   Clear
8:53 AM 27.0 °F - 3.0 °F 36% 29.90 in 10.0 mi Calm Calm - N/A   Clear
9:53 AM 30.0 °F 24.1 °F 5.0 °F 35% 29.89 in 10.0 mi WSW 5.8 mph - N/A   Clear
10:53 AM 34.0 °F 28.8 °F 8.1 °F 34% 29.86 in 10.0 mi Variable 5.8 mph - N/A   Clear
11:53 AM 36.0 °F 28.5 °F 10.0 °F 34% 29.83 in 10.0 mi West 10.4 mph - N/A   Clear
12:53 PM 37.0 °F 30.4 °F 12.0 °F 36% 29.81 in 10.0 mi WSW 9.2 mph - N/A   Clear
1:53 PM 37.0 °F 30.4 °F 12.9 °F 37% 29.81 in 10.0 mi West 9.2 mph - N/A   Clear
2:53 PM 37.0 °F 31.0 °F 10.9 °F 34% 29.82 in 10.0 mi West 8.1 mph - N/A   Clear
3:53 PM 37.0 °F 33.3 °F 10.9 °F 34% 29.83 in 10.0 mi West 4.6 mph - N/A   Clear
4:53 PM 33.1 °F - 10.9 °F 40% 29.86 in 10.0 mi Calm Calm - N/A   Clear
5:53 PM 28.9 °F - 12.9 °F 51% 29.89 in 10.0 mi Calm Calm - N/A   Clear
6:53 PM 26.1 °F - 10.9 °F 53% 29.92 in 10.0 mi Calm Calm - N/A   Clear
7:53 PM 24.1 °F - 10.9 °F 57% 29.91 in 10.0 mi Calm Calm - N/A   Clear
8:53 PM 21.0 °F - 10.9 °F 65% 29.90 in 10.0 mi Calm Calm - N/A   Clear
9:53 PM 21.9 °F - 12.0 °F 66% 29.89 in 10.0 mi Calm Calm - N/A   Clear
10:53 PM 19.0 °F - 12.0 °F 74% 29.89 in 10.0 mi Calm Calm - N/A   Clear
11:53 PM 21.9 °F - 14.0 °F 72% 29.88 in 10.0 mi Calm Calm - N/A   Clear